Weather History for Elim Airport, AK

Change the Weather History Date:

Sunday, August 10, 2014

  Actual Average (PAKK) Record (PAKK)
Temperature  
Mean Temperature 67 °F -  
Max Temperature 73 °F 54 °F 78 °F (2014)
Min Temperature 61 °F 46 °F 37 °F (1996)
Cooling Degree Days 2    
Growing Degree Days 17 (Base 50)    
Moisture  
Dew Point 51 °F    
Average Humidity 55    
Maximum Humidity 65    
Minimum Humidity 44    
Precipitation  
Precipitation 0.00 in - - ()
Sea Level Pressure  
Sea Level Pressure 29.68 in    
Wind  
Wind Speed 9 mph (North)    
Max Wind Speed 15 mph    
Max Gust Speed 20 mph    
Visibility 10 miles    
Events      
Averages and records for this station are not official NWS values.
T = Trace of Precipitation, MM = Missing Value Source: NWS Daily Summary

Daily Weather History Graph

Daily Weather History Graph

Search for Another Location

Airport:

Trip Planner

Search our weather history database for the weather conditions in past years. The results will help you decide how hot, cold, wet, or windy it might be!

Date:

Astronomy

Aug. 10, 2014 Rise Set
Actual Time 6:21 AM AKDT 11:24 PM AKDT
Civil Twilight 5:07 AM AKDT 12:37 AM AKDT
Nautical Twilight 3:26 AM AKDT 2:21 AM AKDT
Astronomical Twilight Sun does not rise Sun does not rise
Moon 10:37 PM AKDT (8/10) 6:55 AM AKDT (8/10)
Length of Visible Light 19h 30m
Length of Day
17h 03m
Full, 100% of the Moon is Illuminated
Aug 10
Full
Aug 17
Last Quarter
Aug 25
New
Sep 2
First Quarter
Sep 8
Full

Hourly Weather History & Observations

Time (AKDT) Temp. Dew Point Humidity Pressure Visibility Wind Dir Wind Speed Gust Speed Precip Events Conditions
12:58 AM 64.9 °F 50.0 °F 58% 29.64 in 10.0 mi North 9.2 mph - N/A   Overcast
1:58 AM 64.9 °F 48.9 °F 56% 29.65 in 10.0 mi NNW 10.4 mph - N/A   Overcast
2:58 AM 63.0 °F 48.9 °F 60% 29.65 in 10.0 mi NNW 12.7 mph - N/A   Clear
3:58 AM 63.0 °F 48.9 °F 60% 29.66 in 10.0 mi NNW 10.4 mph - N/A   Clear
4:58 AM 62.1 °F 48.9 °F 62% 29.67 in 10.0 mi NNW 9.2 mph - N/A   Clear
5:58 AM 61.0 °F 48.9 °F 64% 29.67 in 10.0 mi NNW 9.2 mph - N/A   Clear
6:58 AM 62.1 °F 48.9 °F 62% 29.67 in 10.0 mi NNW 10.4 mph - N/A   Clear
8:58 AM 63.0 °F 51.1 °F 65% 29.68 in 10.0 mi North 11.5 mph - N/A   Mostly Cloudy
9:58 AM 64.0 °F 51.1 °F 63% 29.69 in 10.0 mi NNE 12.7 mph - N/A   Clear
10:58 AM 64.9 °F 52.0 °F 63% 29.69 in 10.0 mi North 13.8 mph 19.6 mph N/A   Clear
11:58 AM 66.9 °F 53.1 °F 61% 29.70 in 10.0 mi NE 15.0 mph - N/A   Clear
12:58 PM 68.0 °F 53.1 °F 59% 29.71 in 10.0 mi NE 11.5 mph - N/A   Clear
1:58 PM 69.1 °F 53.1 °F 57% 29.70 in 10.0 mi ENE 9.2 mph - N/A   Clear
2:58 PM 69.1 °F 52.0 °F 54% 29.70 in 10.0 mi East 6.9 mph - N/A   Clear
3:58 PM 71.1 °F 52.0 °F 51% 29.70 in 10.0 mi ENE 6.9 mph - N/A   Clear
4:58 PM 73.9 °F 52.0 °F 46% 29.69 in 10.0 mi ESE 4.6 mph - N/A   Clear
5:58 PM 73.9 °F 52.0 °F 46% 29.68 in 10.0 mi Calm Calm - N/A   Clear
6:58 PM 73.0 °F 52.0 °F 48% 29.66 in 10.0 mi SSW 5.8 mph - N/A   Clear
7:58 PM 73.9 °F 51.1 °F 45% 29.66 in 10.0 mi SSW 3.5 mph - N/A   Clear
8:58 PM 73.0 °F 50.0 °F 44% 29.66 in 10.0 mi WSW 3.5 mph - N/A   Clear
9:58 PM 71.1 °F 50.0 °F 47% 29.66 in 10.0 mi WSW 5.8 mph - N/A   Clear
10:58 PM 72.0 °F 50.0 °F 46% 29.67 in 10.0 mi NW 4.6 mph - N/A   Clear
11:58 PM 69.1 °F 50.0 °F 51% 29.67 in 10.0 mi NNW 8.1 mph - N/A   Clear